Wind_Speed
5 5 2 5 1 4 8 12 14 15 12 17 17 18 18 17 10 10 21 19 20 16 13 13 13 13 10 10 10 10 10 9 8 8 8 7 7 7 6 6 6 7 7 8 12 13 14 14 16
7 9 7 5 3 3 5 13 14 18 17 16 16 11 17 16 15 24 22 19 20 14 15 12 13 13 11 10 10 10 10 10 8 9 9 9 10 10 9 8 8 7 8 10 13 13 14 15 16
2 3 6 3 4 5 6 7 14 16 13 13 8 13 8 6 22 17 21 22 16 21 18 10 13 14 12 11 9 10 9 10 11 10 11 10 10 8 8 7 7 6 8 11 11 13 13 13 16
2 1 11 7 10 18 6 11 16 11 12 14 18 15 13 13 12 21 21 20 17 19 10 9 13 14 12 12 11 10 10 9 10 8 9 10 9 8 8 6 7 7 7 9 11 11 12 13 14
7 2 3 8 11 13 10 14 13 9 13 8 14 14 12 13 16 21 19 19 22 17 11 10 14 13 12 12 12 10 10 9 7 8 7 5 8 8 7 6 4 6 7 8 10 11 10 10 13
10 9 1 4 12 9 12 12 14 14 11 8 17 21 11 14 19 20 18 17 18 19 15 12 14 14 13 12 11 11 9 7 7 6 2 3 5 6 7 6 6 6 7 8 9 10 10 10 10
11 5 4 2 13 4 8 9 15 4 10 11 7 12 15 19 20 21 17 17 17 18 16 13 13 14 12 12 10 9 7 6 5 3 1 4 3 6 6 7 7 8 6 6 8 9 9 10 10
13 5 7 7 9 6 11 7 13 9 10 1 15 8 18 21 21 19 15 18 14 17 13 16 13 12 10 7 8 6 5 4 3 4 1 5 1 11 9 8 8 10 7 6 8 9 9 10 11
12 4 5 11 12 11 9 10 7 6 11 3 6 18 22 24 22 17 19 16 16 13 15 15 12 11 3 3 6 5 3 2 2 6 6 7 5 10 14 9 8 9 9 8 8 9 9 8 7
7 4 4 19 20 11 4 14 12 3 10 5 8 21 25 24 20 21 19 19 17 12 16 15 13 11 8 5 2 2 4 3 3 1 2 8 7 6 14 12 9 10 10 9 9 9 8 8 6
5 7 5 30 39 33 6 4 1 10 8 10 4 29 22 22 20 24 22 24 18 15 21 11 13 13 9 7 1 3 2 3 3 7 4 3 3 4 8 13 11 10 11 10 9 9 10 9 10
9 27 33 25 26 4 4 6 4 4 5 11 20 24 21 20 20 25 19 20 18 19 15 12 13 10 10 4 3 4 4 5 7 8 11 3 2 1 4 7 11 12 10 11 11 9 3 9 9
8 12 15 1 4 5 2 7 6 4 3 3 18 20 20 17 20 17 18 18 18 18 15 13 15 13 13 11 3 1 4 4 1 6 13 4 8 5 3 5 8 16 15 10 11 12 9 7 8
6 20 27 5 6 5 3 8 3 5 2 7 19 21 16 17 20 17 16 19 17 18 15 19 11 12 10 12 9 8 8 10 8 5 4 5 8 6 2 3 7 13 20 13 13 8 13 10 10
9 11 15 7 5 6 4 4 3 4 7 10 22 17 16 17 19 20 19 16 14 14 16 14 9 8 10 7 3 4 3 3 8 5 7 4 5 10 4 1 4 9 19 15 16 17 11 5 7
14 9 9 7 5 6 3 3 3 7 10 19 18 16 17 19 20 17 15 17 12 15 14 12 10 10 8 7 3 1 3 5 4 3 1 3 8 9 10 4 2 6 15 18 19 16 15 14 12
7 3 13 15 30 5 9 3 8 10 17 21 13 16 14 17 20 16 17 13 13 21 17 12 10 8 9 4 1 4 4 4 2 4 4 8 4 5 7 6 2 4 7 11 15 18 14 16 14
12 5 10 9 10 14 6 13 12 12 22 25 19 17 20 18 16 16 16 17 24 16 14 10 14 6 6 5 5 5 5 5 3 2 6 4 3 3 3 5 6 5 7 6 8 8 9 11 12
13 13 3 4 17 12 7 12 12 13 17 21 22 29 23 21 18 20 16 14 18 16 15 15 12 12 10 6 7 4 5 9 3 8 3 6 2 3 3 2 3 2 10 10 9 12 10 13 10
20 3 13 20 1 7 5 11 14 13 12 24 24 21 21 19 26 23 19 19 17 20 18 15 13 7 9 6 7 5 6 3 6 7 3 2 3 4 1 2 4 5 5 10 11 10 7 10 8
4 11 18 8 8 8 8 8 15 14 14 16 19 27 26 21 21 26 23 21 19 19 17 14 15 10 7 9 9 9 11 7 2 4 7 6 2 1 4 3 4 4 2 3 8 14 17 11 11
1 10 19 15 5 2 6 3 4 13 14 14 18 17 28 23 21 25 25 24 21 24 18 17 14 13 13 10 11 11 4 5 7 6 5 3 2 3 4 5 4 5 4 4 4 7 13 13 14
8 5 19 21 13 10 6 8 5 16 16 15 19 21 23 23 26 25 24 21 20 20 17 17 15 14 13 13 11 14 12 10 2 8 5 4 3 3 3 6 7 5 3 7 6 6 8 12 13
6 13 24 10 6 3 18 11 7 16 18 18 20 23 23 26 26 28 25 26 21 22 20 21 17 13 13 17 15 15 11 12 6 8 5 6 8 6 2 4 7 5 6 7 6 7 9 10 13
26 22 7 7 5 7 16 2 9 13 19 20 21 25 24 24 23 22 22 28 22 25 18 20 19 12 12 14 12 15 13 12 11 9 5 5 7 12 10 6 9 5 7 8 8 10 10 11 12
16 12 6 2 4 8 4 6 11 11 12 27 27 25 24 23 23 23 22 19 17 21 20 18 15 13 12 11 10 12 13 13 14 13 11 9 9 6 6 8 11 11 11 11 8 8 10 9 15
5 7 16 3 4 4 9 4 14 13 10 6 26 25 24 23 24 25 24 23 25 21 19 19 21 13 14 13 14 14 15 14 11 9 12 12 11 9 12 12 12 10 9 11 13 12 11 12 13
7 1 3 5 4 3 10 12 8 8 10 7 12 25 25 23 23 27 26 25 25 21 21 20 20 17 16 16 15 17 16 15 15 16 17 11 10 9 14 15 13 8 11 13 13 12 11 12 14
9 3 13 8 6 4 7 4 7 13 7 7 4 7 22 25 22 25 24 24 25 23 25 26 27 24 20 19 21 16 17 17 17 17 14 13 13 15 16 16 13 11 11 11 13 16 12 16 17
13 14 12 0 6 8 7 7 11 16 14 8 8 5 3 11 26 24 27 15 23 25 26 25 19 6 20 16 19 18 16 16 16 16 14 12 12 10 11 14 12 11 12 9 16 13 12 13 16
Wind_Direction
199 24 319 292 167 243 85 126 99 97 66 60 60 71 74 49 28 101 141 135 137 136 138 138 137 130 121 110 108 108 108 103 100 100 100 89 85 91 91 114 110 99 102 112 129 128 124 124 118
238 248 245 252 282 73 42 41 79 78 94 92 79 100 74 57 95 124 126 138 138 131 132 130 131 130 123 112 110 113 111 104 99 96 96 93 89 92 94 98 97 92 96 111 130 130 128 123 124
112 236 268 214 189 111 105 143 93 103 131 109 102 89 79 92 118 120 135 138 127 133 145 116 130 127 123 117 116 119 116 111 108 113 109 103 105 102 104 100 103 99 103 111 125 132 131 127 122
299 309 269 255 64 119 151 107 116 118 77 93 120 97 93 125 127 133 137 139 128 137 158 129 128 125 122 122 121 124 118 114 121 125 118 116 124 131 114 97 107 117 113 123 125 138 137 136 127
237 322 254 147 136 97 111 107 130 137 107 116 103 98 109 120 117 138 143 135 132 137 136 139 130 122 119 123 128 128 124 134 130 120 99 118 129 130 116 113 118 126 127 129 132 139 143 140 127
293 2 15 345 71 24 113 118 75 56 75 90 118 112 115 146 139 145 146 140 135 130 136 138 127 120 113 117 125 132 137 140 137 149 105 108 149 145 136 133 132 134 131 133 138 142 145 147 139
265 190 191 239 90 34 109 139 91 284 132 107 98 75 130 147 150 150 156 145 127 127 129 134 132 125 117 120 129 132 139 144 148 156 3 53 147 154 141 150 150 152 146 147 151 157 154 155 145
303 307 344 316 138 170 157 105 152 151 69 219 109 135 158 153 155 153 154 143 146 130 134 137 144 126 98 121 124 134 150 161 150 12 20 20 113 176 159 161 163 158 152 147 150 149 150 151 155
297 9 23 331 13 293 150 118 74 106 165 103 89 145 148 147 158 157 157 150 157 147 165 146 152 153 98 90 113 132 129 75 96 75 82 60 107 164 183 173 174 179 161 168 168 160 153 151 157
266 92 132 264 254 241 325 118 203 108 93 322 130 123 147 147 155 165 166 159 151 153 162 171 160 184 141 136 359 90 45 65 75 28 67 58 75 123 179 184 178 181 171 167 169 172 169 166 131
112 141 143 264 261 244 162 99 169 191 109 111 222 140 159 152 167 167 176 169 165 172 170 141 156 172 150 160 300 273 299 331 338 314 318 306 88 113 168 190 188 189 185 174 165 160 161 137 165
323 169 166 244 242 289 114 122 134 46 136 167 169 151 152 154 173 171 181 165 169 159 161 171 172 167 166 155 212 308 295 320 292 335 299 284 302 226 178 184 198 183 192 190 170 155 113 181 212
6 11 201 341 200 112 81 60 77 101 335 182 159 147 157 173 174 173 184 170 168 164 168 171 180 178 195 158 187 345 208 278 298 63 319 267 311 316 238 210 202 190 191 179 154 174 202 206 196
185 201 270 215 153 114 242 126 252 111 160 151 152 147 158 167 177 148 166 204 186 161 165 167 167 202 176 165 170 201 253 297 340 20 58 5 343 324 289 223 205 192 187 170 176 196 208 227 175
191 220 242 207 174 131 22 32 42 81 138 147 125 147 151 165 166 158 159 189 160 157 165 155 183 179 167 151 162 149 333 346 338 47 72 353 338 34 35 258 221 197 183 193 196 186 200 225 202
350 28 317 220 186 153 158 276 143 152 158 118 133 147 163 167 175 166 175 160 158 152 159 153 171 169 160 156 218 227 257 246 288 79 131 5 35 26 17 47 231 185 192 199 196 189 210 205 210
48 267 280 317 318 205 161 135 197 170 131 127 143 148 122 181 194 170 170 154 157 157 149 169 210 196 197 216 187 238 292 313 329 306 2 31 74 354 45 36 141 182 163 185 203 212 213 205 207
166 208 233 185 253 283 179 160 150 176 143 154 151 157 170 181 173 178 178 159 185 151 152 177 184 159 145 188 220 237 213 306 259 274 318 354 49 342 22 19 21 167 164 174 188 199 202 204 199
230 214 317 193 213 216 217 150 154 173 169 147 156 177 167 186 182 174 180 173 159 166 179 188 173 213 204 203 207 232 249 245 233 258 288 3 54 276 62 6 31 60 187 188 207 206 209 193 186
307 64 355 269 228 222 241 171 157 174 194 164 170 175 174 189 183 175 188 187 175 173 184 179 205 226 198 199 233 241 225 48 236 245 264 272 172 277 261 154 333 346 185 200 202 185 197 195 214
149 178 222 222 191 223 161 221 155 176 179 168 184 180 178 185 191 187 187 190 185 186 194 200 205 214 228 191 221 248 237 235 254 236 235 260 205 244 294 316 231 284 183 232 219 196 202 205 221
255 260 188 211 136 256 350 244 290 184 180 179 184 178 173 171 170 175 183 188 189 187 192 200 207 212 223 211 198 226 224 210 240 255 278 90 206 226 272 293 261 309 319 339 292 218 208 225 207
3 359 37 91 60 3 238 48 277 191 187 185 192 185 174 170 170 176 183 187 190 185 190 200 200 218 203 236 192 231 222 208 270 219 269 247 277 323 237 282 294 227 246 265 309 251 240 233 234
313 48 32 42 127 161 135 159 262 175 187 184 190 185 187 180 183 185 186 183 195 191 195 194 205 217 221 223 205 218 213 201 214 240 241 246 254 265 277 292 315 274 238 252 254 268 282 264 244
62 35 18 350 338 122 107 81 235 184 185 175 183 188 189 188 190 186 190 184 186 184 186 191 190 215 213 210 213 214 208 214 218 222 220 286 263 238 262 257 312 291 275 263 254 265 252 264 271
74 151 134 93 269 360 160 162 119 94 127 164 172 183 184 191 189 187 189 193 184 181 179 184 202 212 206 202 203 205 209 213 215 223 215 228 255 269 227 283 298 275 257 271 269 264 273 299 271
114 227 162 199 84 33 271 349 85 112 94 129 158 168 180 190 191 187 187 194 184 193 188 191 199 202 203 202 202 206 207 211 210 220 253 236 243 246 289 281 287 295 279 281 273 277 274 270 275
192 178 73 183 106 291 352 354 63 121 131 137 141 164 176 188 198 182 191 190 188 192 188 193 191 193 201 209 221 213 214 213 209 207 224 229 228 258 260 280 293 300 334 293 295 291 280 275 277
168 9 341 354 106 117 323 310 305 337 116 136 147 155 174 181 194 190 187 190 187 190 191 193 193 196 195 201 231 236 230 220 218 219 230 235 235 236 257 280 282 275 283 294 291 289 284 280 286
115 156 170 109 222 163 184 280 322 300 281 133 97 112 139 188 184 200 179 185 184 191 197 196 164 104 186 207 225 236 246 236 231 225 232 246 256 259 268 279 286 289 255 296 316 296 280 292 288
Height
1493 1493 1494 1496 1503 1495 1487 1484 1471 1476 1481 1486 1488 1489 1500 1503 1502 1521 1523 1528 1530 1532 1533 1535 1537 1538 1541 1541 1542 1543 1544 1545 1547 1547 1548 1549 1550 1551 1552 1553 1554 1555 1555 1556 1556 1557 1559 1560 1560
1491 1494 1495 1490 1497 1498 1493 1476 1482 1480 1488 1491 1494 1497 1502 1509 1510 1517 1524 1529 1531 1532 1535 1536 1538 1539 1541 1543 1544 1544 1545 1546 1547 1548 1549 1550 1552 1553 1554 1555 1556 1556 1558 1558 1558 1560 1561 1562 1562
1494 1503 1503 1491 1483 1487 1495 1481 1480 1487 1488 1490 1496 1500 1505 1516 1517 1520 1526 1529 1533 1534 1536 1537 1539 1540 1542 1543 1545 1546 1546 1547 1547 1548 1550 1551 1553 1554 1555 1557 1558 1558 1559 1560 1561 1562 1564 1565 1566
1497 1499 1495 1488 1481 1474 1483 1476 1482 1485 1489 1489 1495 1505 1514 1516 1519 1523 1526 1530 1533 1535 1537 1539 1540 1541 1543 1544 1545 1547 1547 1548 1548 1549 1550 1552 1553 1554 1556 1558 1559 1560 1561 1562 1563 1565 1566 1567 1568
1501 1500 1501 1486 1477 1468 1472 1477 1482 1484 1487 1489 1495 1506 1513 1518 1522 1526 1528 1530 1532 1535 1536 1540 1541 1542 1543 1544 1546 1547 1548 1548 1549 1550 1551 1553 1554 1555 1556 1558 1560 1561 1562 1563 1565 1566 1568 1569 1571
1498 1500 1510 1502 1477 1479 1474 1481 1484 1489 1489 1493 1494 1502 1515 1520 1524 1528 1530 1533 1534 1535 1537 1540 1542 1543 1544 1545 1546 1547 1547 1548 1549 1550 1551 1553 1554 1555 1557 1559 1561 1563 1563 1564 1565 1567 1568 1570 1571
1499 1502 1502 1482 1487 1498 1480 1483 1490 1494 1489 1494 1499 1507 1517 1521 1524 1528 1530 1533 1536 1537 1539 1541 1543 1544 1545 1546 1546 1547 1547 1548 1548 1549 1550 1551 1552 1554 1556 1559 1561 1563 1564 1565 1566 1567 1569 1570 1572
1490 1491 1506 1486 1486 1494 1480 1485 1487 1493 1499 1497 1498 1510 1516 1520 1524 1527 1531 1533 1537 1539 1541 1543 1545 1546 1546 1547 1547 1548 1548 1548 1549 1549 1549 1550 1550 1552 1555 1558 1560 1562 1564 1566 1567 1568 1570 1571 1573
1485 1491 1517 1517 1498 1497 1479 1484 1488 1492 1494 1495 1499 1503 1511 1516 1523 1527 1530 1534 1536 1540 1542 1544 1544 1546 1548 1547 1548 1549 1550 1551 1551 1550 1549 1549 1549 1551 1554 1556 1559 1562 1563 1565 1567 1569 1570 1572 1573
1485 1511 1519 1508 1504 1497 1487 1486 1491 1492 1496 1498 1501 1505 1512 1515 1522 1527 1529 1532 1535 1539 1540 1545 1547 1547 1548 1549 1550 1552 1553 1554 1555 1555 1554 1552 1551 1551 1553 1555 1558 1561 1563 1565 1567 1569 1570 1572 1573
1486 1517 1517 1501 1498 1491 1483 1487 1487 1492 1499 1502 1510 1505 1512 1513 1520 1525 1527 1530 1534 1537 1540 1543 1546 1549 1549 1550 1552 1553 1555 1556 1557 1559 1558 1558 1556 1554 1554 1555 1557 1560 1562 1564 1566 1568 1570 1571 1574
1495 1493 1496 1489 1486 1481 1484 1486 1485 1490 1495 1497 1500 1504 1511 1513 1519 1522 1526 1529 1532 1536 1540 1544 1546 1550 1551 1554 1553 1555 1555 1554 1556 1558 1560 1558 1558 1555 1555 1555 1556 1559 1561 1564 1566 1568 1569 1571 1572
1491 1495 1486 1480 1479 1484 1484 1485 1487 1490 1495 1496 1498 1504 1509 1515 1519 1524 1530 1532 1534 1536 1540 1543 1543 1547 1550 1553 1557 1556 1554 1553 1550 1555 1534 1554 1557 1555 1553 1554 1556 1558 1560 1563 1565 1567 1570 1570 1572
1492 1497 1485 1479 1478 1480 1480 1485 1489 1492 1494 1495 1497 1504 1510 1516 1520 1522 1531 1529 1533 1536 1540 1541 1542 1545 1549 1552 1555 1556 1554 1552 1544 1551 1553 1557 1556 1553 1551 1554 1555 1557 1559 1562 1565 1567 1570 1569 1570
1488 1498 1480 1477 1477 1478 1482 1492 1488 1493 1494 1495 1499 1505 1509 1514 1520 1524 1524 1527 1535 1538 1541 1543 1543 1545 1548 1551 1555 1556 1554 1553 1554 1554 1554 1558 1557 1550 1551 1553 1555 1556 1559 1561 1564 1566 1569 1569 1570
1495 1487 1494 1474 1476 1478 1484 1505 1491 1494 1494 1497 1502 1506 1510 1515 1520 1524 1528 1531 1534 1538 1542 1545 1546 1546 1548 1551 1553 1554 1556 1556 1557 1557 1558 1559 1555 1547 1550 1551 1554 1555 1558 1560 1562 1564 1567 1567 1569
1510 1522 1511 1501 1491 1474 1479 1498 1490 1493 1494 1501 1504 1507 1512 1520 1521 1524 1528 1533 1535 1536 1540 1546 1547 1546 1547 1550 1552 1553 1554 1555 1556 1556 1556 1556 1556 1554 1554 1553 1552 1555 1557 1559 1561 1563 1564 1566 1567
1507 1512 1497 1508 1490 1476 1476 1484 1484 1490 1492 1499 1505 1510 1513 1518 1519 1522 1528 1530 1538 1534 1540 1547 1547 1547 1547 1549 1550 1552 1552 1554 1553 1554 1554 1555 1556 1556 1554 1554 1554 1554 1556 1559 1560 1561 1563 1564 1565
1482 1490 1481 1483 1474 1474 1469 1478 1481 1486 1487 1495 1504 1507 1510 1512 1517 1521 1526 1531 1535 1538 1543 1547 1546 1545 1546 1548 1549 1550 1551 1552 1553 1554 1554 1554 1555 1555 1555 1555 1555 1555 1556 1558 1559 1559 1560 1561 1562
1482 1493 1502 1484 1463 1468 1468 1471 1475 1481 1483 1488 1497 1502 1507 1510 1514 1518 1525 1528 1533 1538 1541 1543 1543 1545 1545 1547 1548 1549 1550 1550 1552 1553 1554 1554 1555 1555 1556 1556 1555 1554 1555 1556 1557 1558 1558 1559 1560
1481 1487 1498 1479 1466 1462 1465 1474 1474 1477 1481 1485 1490 1496 1503 1508 1510 1515 1520 1525 1530 1533 1537 1539 1541 1542 1544 1545 1548 1548 1549 1551 1552 1554 1554 1555 1555 1555 1555 1555 1555 1555 1555 1555 1555 1555 1556 1557 1558
1485 1457 1463 1467 1471 1494 1474 1508 1484 1474 1479 1483 1487 1491 1496 1503 1508 1512 1517 1521 1525 1528 1532 1535 1538 1541 1542 1544 1546 1548 1549 1551 1552 1553 1554 1553 1554 1554 1554 1555 1555 1554 1554 1554 1555 1555 1556 1555 1555
1462 1452 1461 1481 1501 1511 1492 1520 1483 1470 1480 1481 1484 1488 1492 1499 1504 1509 1513 1518 1522 1527 1531 1534 1537 1539 1541 1543 1545 1547 1548 1549 1550 1551 1552 1553 1554 1553 1553 1553 1553 1553 1553 1553 1554 1554 1555 1555 1554
1452 1462 1477 1476 1490 1524 1493 1512 1492 1470 1469 1473 1479 1484 1488 1494 1499 1503 1508 1514 1519 1523 1528 1531 1534 1537 1539 1540 1543 1544 1546 1547 1549 1550 1551 1552 1552 1551 1552 1551 1550 1550 1552 1552 1554 1553 1553 1552 1551
1475 1500 1541 1534 1518 1518 1484 1493 1471 1452 1450 1461 1471 1478 1485 1489 1494 1500 1505 1509 1514 1519 1524 1528 1531 1534 1537 1538 1540 1542 1544 1546 1548 1548 1549 1550 1550 1549 1549 1549 1549 1550 1550 1550 1550 1550 1550 1549 1548
1475 1525 1543 1566 1551 1522 1487 1480 1458 1443 1446 1454 1464 1474 1481 1486 1491 1496 1502 1507 1512 1516 1521 1526 1528 1532 1534 1537 1538 1540 1542 1543 1544 1545 1546 1548 1549 1547 1547 1548 1548 1548 1547 1547 1548 1546 1547 1547 1546
1473 1478 1496 1534 1532 1553 1537 1467 1447 1447 1453 1453 1458 1469 1477 1482 1486 1492 1498 1503 1508 1514 1518 1523 1525 1529 1531 1533 1536 1537 1538 1539 1540 1544 1545 1547 1548 1550 1548 1548 1547 1549 1550 1549 1547 1544 1545 1544 1544
1460 1458 1511 1503 1530 1535 1505 1516 1475 1459 1459 1455 1456 1464 1472 1479 1482 1486 1492 1498 1504 1510 1514 1520 1522 1526 1529 1532 1533 1534 1536 1538 1539 1542 1543 1545 1547 1548 1548 1547 1547 1548 1545 1544 1546 1546 1541 1540 1541
1458 1480 1477 1475 1506 1553 1556 1501 1469 1469 1455 1456 1458 1461 1465 1472 1478 1482 1488 1494 1500 1504 1508 1512 1517 1521 1525 1529 1529 1531 1533 1535 1538 1540 1541 1543 1545 1547 1547 1545 1545 1544 1542 1542 1544 1541 1539 1538 1537
1448 1474 1484 1505 1503 1520 1536 1515 1467 1466 1461 1455 1459 1463 1464 1467 1472 1478 1485 1492 1497 1502 1504 1506 1509 1512 1520 1526 1529 1530 1531 1533 1535 1537 1539 1541 1542 1543 1544 1542 1541 1526 1539 1539 1539 1537 1536 1536 1534